星链-31801 (STARLINK-31801 )

导读

STARLINK-31801是美国太空探索技术公司 SpaceX 星链星座的成员,于2024年5月3日发射升空。星链计划旨在构建全球卫星互联网星座,为全球偏远地区、海洋等信号盲区提供高速低延迟的宽带接入服务,该卫星入轨后将承担用户通信服务。目前已在轨运行近两年,整体运行状态平稳,推进星座全球服务覆盖建设。

基本信息
目录编号:
59647
目录名称:
STARLINK-31801
国际标识:
2024-082S
轨道中心:
EARTH
卫星名称:
星链-31801
卫星全名:
星链-31801 (STARLINK-31801 )
卫星状态:
在轨 (已飞行862 天)
发射日期:
2024-05-03 UTC
国别 :
美国 (US)
星等 :
--
该卫星已列入 空间交会检测服务 Space Conjunction Data Service (SCDS) ,当前飞行风险评估等级: 高风险
轨道信息
数据来源 国际轨道数据 AOE轨道数据
星历时间 2026-09-11T19:56:19+0800
15小时前
查看轨道信息
2026-09-10T22:00:00+0800
1天前
查看轨道信息
半长轴 6861.202km 6861.269km
偏心率 0.0000959 0.0001322
轨道倾角 43.004° 43.004°
近地点辐角 278.194° 271.540°
升交点赤经 170.909° 176.072°
平近点角 81.881° 95.671°
近地点 482.407km 482.224km
远地点 483.723km 484.04km
周期 94.267分钟 94.268分钟
每日圈数 15.275749 15.275525
详细信息
固有亮度:
5
最大亮度:
1.5
卫星平台:
Starlink v2.0 mini
覆盖范围:
全球
运营商:
太空探索技术公司
运营商所在国:
美国
制造商(研发单位):
太空探索技术公司
制造商所在国:
美国
使用方式:
暂无
卫星简介
星链(Starlink)计划是由太空探索技术公司(SpaceX)提出的一个巨型低轨卫星互联网星座项目,计划在2019年至2024年间在太空搭建由约1.2万颗卫星组成的“星链”网络,其中1584颗将部署在地球上空550千米处的近地轨道,并从2020年开始工作。该卫星仍在工作。
2D轨道图
3D轨道图
轨道高度分析图
轨道倾角分析图
轨道综合分析图
查看轨道综合分析图
与全量物体交会距离演化趋势
与全量物体交会风险概率演化趋势